FW6366 Weather Reports


Display with metric or nautical units.
time (UTC)temp
F
wind
direction
speed
MPH
gust
MPH
rain 1hr
in
rain 24hr
in
rain mn
in
humidity
%
barometer
mb
20260906055058 59 0 0.0 1.0 0.00 0.07 0.00 91 1015.1
20260906054603 59 0 0.0 1.0 0.00 0.07 0.00 91 1014.9
20260906054100 59 0 0.0 2.0 0.00 0.07 0.00 91 1014.9
20260906053600 60 0 0.0 2.0 0.00 0.07 0.00 91 1014.9
20260906053102 60 0 0.0 2.0 0.00 0.07 0.00 90 1014.9
20260906052600 60 319 0.0 2.0 0.00 0.07 0.00 90 1014.9
20260906052058 60 174 0.0 2.0 0.00 0.07 0.00 90 1015.0
20260906051606 60 0 0.0 3.0 0.00 0.07 0.00 90 1015.1
20260906051100 60 0 0.0 3.0 0.00 0.07 0.00 90 1015.1
20260906050602 60 293 0.0 2.0 0.00 0.07 0.00 90 1015.1
20260906050131 60 0 0.0 2.0 0.00 0.07 0.00 90 1015.1
20260906045601 60 0 0.0 2.0 0.00 0.07 0.00 90 1015.2
20260906045100 60 0 0.0 2.0 0.00 0.07 0.00 89 1015.1
20260906044603 60 300 0.0 3.0 0.00 0.07 0.00 89 1015.1
20260906044059 60 0 0.0 6.0 0.00 0.07 0.00 89 1015.1
20260906043600 60 21 0.0 6.0 0.00 0.07 0.00 89 1015.2
20260906043111 60 0 1.0 5.0 0.00 0.07 0.00 89 1015.2
20260906042559 61 0 0.0 3.0 0.00 0.07 0.00 89 1015.3
20260906042100 60 0 0.0 3.0 0.00 0.07 0.00 89 1015.2
20260906041603 61 306 1.0 3.0 0.00 0.07 0.00 89 1015.2
20260906041100 61 294 1.0 3.0 0.00 0.07 0.00 90 1015.2
20260906040600 61 0 0.0 3.0 0.00 0.07 0.00 90 1015.1
20260906040107 61 302 0.0 3.0 0.00 0.07 0.00 90 1015.0
20260906035558 61 44 1.0 6.0 0.00 0.07 0.07 90 1015.0
20260906035058 61 5 1.0 6.0 0.00 0.07 0.07 90 1015.1
20260906034601 61 320 0.0 3.0 0.00 0.07 0.07 91 1015.2
20260906034103 61 340 0.0 3.0 0.00 0.07 0.07 91 1015.1
20260906033603 61 355 1.0 3.0 0.00 0.07 0.07 92 1015.0
20260906033106 61 313 1.0 5.0 0.00 0.07 0.07 92 1015.0
20260906032559 61 293 0.0 5.0 0.00 0.07 0.07 92 1015.1
20260906032100 61 0 1.0 4.0 0.00 0.07 0.07 93 1015.0
20260906031604 61 73 0.0 6.0 0.00 0.07 0.07 93 1014.9
20260906031058 61 0 0.0 6.0 0.00 0.07 0.07 93 1014.7
20260906030559 61 350 1.0 4.0 0.00 0.07 0.07 93 1014.7
20260906030134 62 0 0.0 5.0 0.00 0.07 0.07 93 1014.7
20260906025559 62 325 2.0 5.0 0.00 0.07 0.07 93 1014.7
20260906025101 62 7 1.0 3.0 0.00 0.07 0.07 93 1014.6
20260906024604 62 0 0.0 1.0 0.00 0.07 0.07 93 1014.7
20260906024058 62 0 0.0 2.0 0.00 0.07 0.07 93 1014.5
20260906023601 62 0 0.0 2.0 0.00 0.07 0.07 93 1014.4
20260906023130 62 0 0.0 2.0 0.00 0.07 0.07 93 1014.4
20260906022602 62 317 0.0 2.0 0.00 0.07 0.07 93 1014.3
20260906022100 62 12 1.0 2.0 0.00 0.07 0.07 93 1014.3
20260906021613 62 55 0.0 2.0 0.00 0.07 0.07 93 1014.2
20260906021059 62 0 0.0 2.0 0.00 0.07 0.07 93 1014.1
20260906020558 62 315 1.0 2.0 0.00 0.07 0.07 93 1014.3
20260906020107 62 323 0.0 2.0 0.00 0.07 0.07 93 1014.3
20260906015558 62 307 1.0 2.0 0.00 0.07 0.07 93 1014.4
20260906015058 62 316 1.0 2.0 0.00 0.07 0.07 93 1014.4
20260906014628 62 306 0.0 1.0 0.00 0.07 0.07 93 1014.4
20260906014059 62 0 0.0 2.0 0.00 0.07 0.07 93 1014.3
20260906013600 62 0 0.0 2.0 0.00 0.07 0.07 93 1014.4
20260906013104 62 0 0.0 0.0 0.00 0.07 0.07 92 1014.4
20260906012601 62 0 0.0 0.0 0.00 0.07 0.07 92 1014.3
20260906012058 62 0 0.0 0.0 0.00 0.07 0.07 92 1014.3
20260906011607 62 0 0.0 1.0 0.00 0.07 0.07 92 1014.2
20260906011059 62 0 0.0 1.0 0.00 0.07 0.07 92 1014.3
20260906010558 62 229 0.0 1.0 0.00 0.07 0.07 92 1014.3
20260906010105 63 0 0.0 1.0 0.00 0.07 0.07 92 1014.2
20260906005559 63 0 0.0 1.0 0.00 0.07 0.07 92 1014.1
20260906005058 63 0 0.0 1.0 0.00 0.07 0.07 92 1014.0
20260906004603 63 0 0.0 0.0 0.00 0.07 0.07 92 1014.1
20260906004057 63 0 0.0 1.0 0.00 0.07 0.07 92 1014.1
20260906003557 63 0 0.0 2.0 0.00 0.07 0.07 91 1014.1
20260906003109 63 0 0.0 2.0 0.00 0.07 0.07 91 1014.0
20260906002558 63 56 0.0 2.0 0.00 0.07 0.07 91 1014.0
20260906002058 63 0 0.0 2.0 0.00 0.07 0.07 91 1014.0
20260906001603 63 0 0.0 1.0 0.00 0.07 0.07 91 1013.9
20260906001058 63 0 0.0 1.0 0.00 0.07 0.07 91 1014.0
20260906000600 63 0 0.0 1.0 0.00 0.07 0.07 91 1013.9
20260906000106 63 0 0.0 0.0 0.00 0.07 0.07 91 1014.0
20260905235558 63 0 0.0 0.0 0.00 0.07 0.07 91 1014.0
20260905235058 64 0 0.0 0.0 0.00 0.07 0.07 91 1013.9
20260905234615 64 0 0.0 1.0 0.00 0.07 0.07 91 1013.9
20260905234058 64 0 0.0 2.0 0.00 0.07 0.07 91 1013.8
20260905233559 64 295 0.0 2.0 0.00 0.07 0.07 90 1013.7
20260905233103 64 301 0.0 1.0 0.00 0.07 0.07 90 1013.6
20260905232558 64 0 0.0 1.0 0.00 0.07 0.07 90 1013.6
20260905232058 64 0 0.0 1.0 0.00 0.07 0.07 90 1013.6
20260905231603 64 0 0.0 2.0 0.00 0.07 0.07 90 1013.6
20260905231101 64 294 0.0 2.0 0.00 0.07 0.07 90 1013.5
20260905230558 64 0 1.0 2.0 0.00 0.07 0.07 90 1013.4
20260905230104 65 321 1.0 2.0 0.00 0.07 0.07 90 1013.5
20260905225601 65 313 0.0 2.0 0.00 0.07 0.07 90 1013.3
20260905225059 65 303 1.0 2.0 0.00 0.07 0.07 90 1013.4
20260905224610 65 310 1.0 2.0 0.00 0.07 0.07 90 1013.3
20260905224059 65 300 0.0 2.0 0.00 0.07 0.07 90 1013.3
20260905223558 66 304 0.0 3.0 0.00 0.07 0.07 90 1013.3
20260905223101 66 306 0.0 3.0 0.00 0.07 0.07 90 1013.2
20260905222559 66 318 0.0 3.0 0.00 0.07 0.07 91 1013.1
20260905222058 66 0 1.0 2.0 0.00 0.07 0.07 91 1013.2
20260905221603 66 316 0.0 2.0 0.00 0.07 0.07 91 1013.1
20260905221059 66 0 0.0 5.0 0.00 0.07 0.07 91 1013.1
20260905220558 66 0 0.0 5.0 0.00 0.07 0.07 91 1013.0
20260905220107 66 0 0.0 5.0 0.00 0.07 0.07 91 1013.0
20260905215559 66 0 1.0 5.0 0.00 0.07 0.07 91 1013.0
20260905215059 66 0 0.0 2.0 0.00 0.07 0.07 91 1013.0
20260905214611 66 0 0.0 3.0 0.00 0.07 0.07 91 1013.0
20260905214058 66 71 0.0 3.0 0.00 0.07 0.07 91 1013.0
20260905213558 66 0 0.0 1.0 0.00 0.07 0.07 90 1012.9
20260905213117 66 0 0.0 3.0 0.00 0.07 0.07 90 1012.9
20260905212558 66 0 0.0 3.0 0.00 0.07 0.07 90 1012.9
20260905212057 66 0 0.0 6.0 0.00 0.07 0.07 90 1012.8
20260905211603 67 0 0.0 6.0 0.00 0.07 0.07 90 1012.7
20260905211059 66 30 0.0 5.0 0.00 0.07 0.07 90 1012.8
20260905210603 67 0 1.0 5.0 0.00 0.07 0.07 89 1012.8
20260905210103 67 22 0.0 6.0 0.00 0.07 0.07 88 1012.8
20260905205558 67 68 1.0 7.0 0.00 0.07 0.07 88 1012.7
20260905205101 67 39 2.0 11.0 0.00 0.07 0.07 89 1012.7
20260905204607 67 15 2.0 11.0 0.00 0.07 0.07 89 1012.7
20260905204059 66 309 2.0 11.0 0.00 0.07 0.07 90 1012.7
20260905203602 66 66 1.0 3.0 0.00 0.07 0.07 91 1012.6
20260905203110 66 0 0.0 2.0 0.00 0.07 0.07 91 1012.6
20260905202557 66 0 0.0 2.0 0.00 0.07 0.07 91 1012.5
20260905202104 66 0 0.0 3.0 0.00 0.07 0.07 92 1012.6
20260905201607 65 0 0.0 3.0 0.00 0.07 0.07 92 1012.6
20260905201058 65 280 1.0 3.0 0.00 0.07 0.07 92 1012.5
20260905200558 65 308 0.0 3.0 0.00 0.07 0.07 91 1012.5
20260905195558 66 307 1.0 3.0 0.00 0.07 0.07 91 1012.5
20260905195059 66 0 0.0 3.0 0.00 0.07 0.07 91 1012.4
20260905194605 66 266 0.0 3.0 0.00 0.07 0.07 91 1012.4
20260905194058 66 304 0.0 9.0 0.01 0.07 0.07 91 1012.5
20260905193558 66 311 2.0 13.0 0.01 0.07 0.07 90 1012.5
20260905193104 67 11 2.0 13.0 0.01 0.07 0.07 92 1012.5
20260905192558 67 206 0.0 2.0 0.01 0.07 0.07 92 1012.5
20260905192102 67 283 0.0 2.0 0.01 0.07 0.07 92 1012.5
20260905191614 66 110 0.0 3.0 0.01 0.07 0.07 93 1012.5
20260905191102 66 0 1.0 3.0 0.01 0.07 0.07 93 1012.5
20260905190601 66 0 0.0 1.0 0.01 0.07 0.07 93 1012.6
20260905190103 65 0 0.0 2.0 0.01 0.07 0.07 93 1012.5
20260905185603 65 0 0.0 2.0 0.01 0.07 0.07 93 1012.6
20260905185058 65 310 1.0 4.0 0.01 0.07 0.07 93 1012.6
20260905184616 65 281 0.0 4.0 0.01 0.07 0.07 92 1012.4
20260905184058 65 0 0.0 4.0 0.00 0.06 0.06 92 1012.5
20260905183558 65 276 0.0 2.0 0.00 0.06 0.06 92 1012.5
20260905183104 65 297 1.0 2.0 0.00 0.06 0.06 92 1012.5
20260905182601 65 295 1.0 2.0 0.00 0.06 0.06 91 1012.4
20260905182101 66 300 0.0 2.0 0.00 0.06 0.06 91 1012.4
20260905181603 66 0 0.0 3.0 0.00 0.06 0.06 90 1012.4
20260905181058 67 333 0.0 7.0 0.00 0.06 0.06 90 1012.4
20260905180559 67 0 0.0 7.0 0.00 0.06 0.06 88 1012.3
20260905180108 68 34 0.0 7.0 0.00 0.06 0.06 88 1012.4
20260905175558 68 0 0.0 7.0 0.00 0.06 0.06 87 1012.3
20260905175058 68 58 2.0 7.0 0.00 0.06 0.06 87 1012.3
20260905174619 68 0 1.0 5.0 0.00 0.06 0.06 90 1012.3
20260905174058 67 60 2.0 5.0 0.00 0.06 0.06 90 1012.3
20260905173558 67 45 1.0 2.0 0.00 0.06 0.06 91 1012.2
20260905173112 67 0 0.0 5.0 0.00 0.06 0.06 92 1012.3
20260905172559 67 0 0.0 5.0 0.00 0.06 0.06 91 1012.2
20260905172058 66 1 0.0 5.0 0.04 0.06 0.06 91 1012.3
20260905171602 66 65 1.0 5.0 0.06 0.06 0.06 92 1012.3
20260905171101 66 56 0.0 2.0 0.06 0.06 0.06 93 1012.4
20260905170558 65 0 0.0 2.0 0.06 0.06 0.06 93 1012.4
20260905170106 65 0 0.0 2.0 0.06 0.06 0.06 93 1012.4
20260905165558 66 316 0.0 2.0 0.06 0.06 0.06 93 1012.4
20260905165101 66 0 1.0 2.0 0.06 0.06 0.06 93 1012.3
20260905164604 66 0 0.0 1.0 0.06 0.06 0.06 93 1012.4
20260905164101 65 0 0.0 2.0 0.06 0.06 0.06 93 1012.5
20260905163602 65 0 0.0 2.0 0.06 0.06 0.06 92 1012.5
20260905163108 65 280 1.0 11.0 0.06 0.06 0.06 89 1012.6
20260905162559 67 281 0.0 11.0 0.06 0.06 0.06 86 1012.5
20260905162058 68 75 4.0 11.0 0.02 0.02 0.02 84 1012.5
20260905161604 68 0 0.0 5.0 0.00 0.00 0.00 83 1012.4
20260905161100 68 96 2.0 7.0 0.00 0.00 0.00 82 1012.5
20260905160559 69 311 3.0 7.0 0.00 0.00 0.00 82 1012.4
20260905160105 68 34 0.0 6.0 0.00 0.00 0.00 85 1012.5
20260905155558 67 62 1.0 8.0 0.00 0.00 0.00 85 1012.6
20260905155059 67 5 2.0 8.0 0.00 0.00 0.00 85 1012.6
20260905154606 66 78 3.0 8.0 0.00 0.00 0.00 86 1012.7
20260905154058 66 44 3.0 6.0 0.00 0.00 0.00 87 1012.7
20260905153602 66 50 1.0 11.0 0.00 0.00 0.00 87 1012.6
20260905153111 66 27 4.0 11.0 0.00 0.00 0.00 85 1012.7
20260905152559 67 51 3.0 11.0 0.00 0.00 0.00 85 1012.8
20260905152058 67 53 3.0 8.0 0.00 0.00 0.00 85 1012.7
20260905151604 67 50 4.0 9.0 0.00 0.00 0.00 85 1012.8
20260905151058 67 47 2.0 9.0 0.00 0.00 0.00 86 1012.8
20260905150558 66 57 4.0 9.0 0.00 0.00 0.00 86 1012.7
20260905150104 66 58 2.0 9.0 0.00 0.00 0.00 86 1012.7
20260905145557 67 53 1.0 7.0 0.00 0.00 0.00 86 1012.6
20260905145058 67 60 3.0 7.0 0.00 0.00 0.00 86 1012.5
20260905144606 67 47 1.0 8.0 0.00 0.00 0.00 87 1012.6
20260905144104 68 60 2.0 8.0 0.00 0.00 0.00 87 1012.6
20260905143602 67 62 1.0 7.0 0.00 0.00 0.00 88 1012.6
20260905143105 67 50 2.0 7.0 0.00 0.00 0.00 89 1012.6
20260905142601 66 107 1.0 7.0 0.00 0.00 0.00 90 1012.5
20260905142102 66 1 1.0 5.0 0.00 0.00 0.00 93 1012.5
20260905141615 64 0 2.0 3.0 0.00 0.00 0.00 95 1012.7
20260905141058 63 58 0.0 1.0 0.00 0.00 0.00 96 1012.8
20260905140558 63 0 0.0 3.0 0.00 0.00 0.00 96 1012.8
20260905140107 63 0 0.0 3.0 0.00 0.00 0.00 96 1012.8
20260905135602 63 56 0.0 3.0 0.00 0.00 0.00 96 1012.8
20260905135102 63 73 0.0 3.0 0.00 0.00 0.00 96 1012.8
20260905134612 62 58 1.0 3.0 0.00 0.00 0.00 96 1012.9
20260905134100 62 44 1.0 3.0 0.00 0.00 0.00 96 1012.8
20260905133558 62 0 0.0 3.0 0.00 0.00 0.00 96 1012.8
20260905133106 62 0 0.0 3.0 0.00 0.00 0.00 96 1012.8
20260905132558 62 5 1.0 3.0 0.00 0.00 0.00 96 1012.8
20260905132101 62 0 0.0 1.0 0.00 0.00 0.00 96 1012.7
20260905131608 62 0 0.0 1.0 0.00 0.00 0.00 96 1012.5
20260905131103 61 0 0.0 2.0 0.00 0.00 0.00 96 1012.6
20260905130601 61 0 0.0 2.0 0.00 0.00 0.00 96 1012.5
20260905130115 61 0 0.0 2.0 0.00 0.00 0.00 96 1012.6
20260905125558 61 0 0.0 1.0 0.00 0.00 0.00 96 1012.5
20260905125058 61 0 0.0 2.0 0.00 0.00 0.00 96 1012.6
20260905124603 61 0 0.0 3.0 0.00 0.00 0.00 96 1012.6
20260905124058 61 0 1.0 3.0 0.00 0.00 0.00 96 1012.4
20260905123559 61 0 0.0 1.0 0.00 0.00 0.00 96 1012.3
20260905123103 60 0 0.0 0.0 0.00 0.00 0.00 96 1012.4
20260905122602 60 0 0.0 0.0 0.00 0.00 0.00 96 1012.4
20260905122059 60 0 0.0 0.0 0.00 0.00 0.00 96 1012.4
20260905121603 60 0 0.0 0.0 0.00 0.00 0.00 96 1012.3
20260905121058 59 0 0.0 1.0 0.00 0.00 0.00 96 1012.4
20260905120559 59 0 0.0 1.0 0.00 0.00 0.00 96 1012.2
20260905120104 59 0 0.0 0.0 0.00 0.00 0.00 96 1012.3
20260905115601 59 0 0.0 0.0 0.00 0.00 0.00 96 1012.2
20260905115100 59 0 0.0 2.0 0.00 0.00 0.00 96 1012.2
20260905114633 59 0 0.0 2.0 0.00 0.00 0.00 96 1012.1
20260905114058 58 0 0.0 1.0 0.00 0.00 0.00 96 1012.0
20260905113558 58 0 0.0 1.0 0.00 0.00 0.00 96 1012.0
20260905113107 58 0 0.0 1.0 0.00 0.00 0.00 96 1012.0
20260905112601 58 206 0.0 1.0 0.00 0.00 0.00 96 1012.0
20260905112102 58 0 0.0 1.0 0.00 0.00 0.00 96 1012.0
20260905111604 58 0 0.0 0.0 0.00 0.00 0.00 96 1011.9
20260905111058 58 0 0.0 1.0 0.00 0.00 0.00 96 1011.9
20260905110558 58 0 0.0 1.0 0.00 0.00 0.00 96 1011.9
20260905110104 58 0 0.0 1.0 0.00 0.00 0.00 96 1011.8
20260905105559 58 0 0.0 1.0 0.00 0.01 0.00 96 1011.7
20260905105058 58 0 0.0 0.0 0.00 0.01 0.00 96 1011.7
20260905104604 58 0 0.0 0.0 0.00 0.01 0.00 96 1011.7
20260905104100 58 0 0.0 0.0 0.00 0.01 0.00 96 1011.6
20260905103604 58 0 0.0 0.0 0.00 0.01 0.00 96 1011.6
20260905103119 57 0 0.0 1.0 0.00 0.01 0.00 96 1011.6
20260905102601 57 0 0.0 2.0 0.00 0.01 0.00 96 1011.5
20260905102059 57 0 0.0 2.0 0.00 0.01 0.00 96 1011.6
20260905101605 57 0 0.0 1.0 0.00 0.01 0.00 96 1011.5
20260905101058 57 0 0.0 1.0 0.00 0.01 0.00 96 1011.6
20260905100558 57 0 0.0 1.0 0.00 0.01 0.00 96 1011.6
20260905100118 57 0 0.0 0.0 0.00 0.01 0.00 96 1011.5
20260905095558 57 0 0.0 0.0 0.00 0.01 0.00 96 1011.6
20260905095101 57 0 0.0 0.0 0.00 0.01 0.00 96 1011.5
20260905094625 57 0 0.0 0.0 0.00 0.01 0.00 96 1011.5
20260905094100 57 0 0.0 0.0 0.00 0.01 0.00 96 1011.5
20260905093558 57 0 0.0 0.0 0.00 0.01 0.00 96 1011.4
20260905093103 57 0 0.0 0.0 0.00 0.01 0.00 96 1011.4
20260905092559 57 0 0.0 0.0 0.00 0.01 0.00 96 1011.4
20260905092059 57 0 0.0 1.0 0.00 0.01 0.00 96 1011.4
20260905091615 57 0 0.0 1.0 0.00 0.01 0.00 96 1011.4
20260905091102 56 0 0.0 1.0 0.00 0.01 0.00 96 1011.3
20260905090558 56 0 0.0 1.0 0.00 0.01 0.00 96 1011.4
20260905090104 56 0 0.0 1.0 0.00 0.01 0.00 96 1011.3
20260905085559 56 0 0.0 2.0 0.00 0.01 0.00 96 1011.4
20260905085058 56 0 0.0 2.0 0.00 0.01 0.00 95 1011.5
20260905084600 56 161 0.0 1.0 0.00 0.01 0.00 95 1011.3
20260905084058 57 0 0.0 1.0 0.00 0.01 0.00 96 1011.3
20260905083600 56 0 0.0 1.0 0.00 0.01 0.00 96 1011.2
20260905083103 56 290 0.0 2.0 0.00 0.01 0.00 95 1011.4
20260905082558 56 255 0.0 2.0 0.00 0.01 0.00 95 1011.4
20260905082059 56 0 0.0 1.0 0.00 0.01 0.00 95 1011.3
20260905081603 57 0 0.0 1.0 0.00 0.01 0.00 95 1011.4
20260905081058 57 0 0.0 1.0 0.00 0.01 0.00 95 1011.4
20260905080558 56 0 0.0 1.0 0.00 0.01 0.00 95 1011.4
20260905075559 57 0 0.0 0.0 0.00 0.01 0.00 95 1011.4
20260905075058 57 0 0.0 1.0 0.00 0.01 0.00 95 1011.5
20260905074606 57 0 0.0 2.0 0.00 0.01 0.00 95 1011.4
20260905074102 57 0 0.0 2.0 0.00 0.01 0.00 95 1011.4
20260905073601 57 148 0.0 3.0 0.00 0.01 0.00 95 1011.4
20260905073109 57 0 0.0 3.0 0.00 0.01 0.00 95 1011.3
20260905072557 57 333 0.0 2.0 0.00 0.01 0.00 95 1011.3
20260905072058 57 0 0.0 3.0 0.00 0.01 0.00 95 1011.4
20260905071607 57 159 0.0 3.0 0.00 0.01 0.00 95 1011.3
20260905071101 57 297 1.0 3.0 0.00 0.01 0.00 95 1011.4
20260905070559 57 0 0.0 2.0 0.00 0.01 0.00 95 1011.4
20260905070104 58 0 0.0 1.0 0.00 0.01 0.00 95 1011.5
20260905065558 58 0 0.0 1.0 0.00 0.01 0.00 95 1011.5
20260905065103 58 280 0.0 1.0 0.00 0.01 0.00 95 1011.6
20260905064616 58 0 0.0 1.0 0.00 0.01 0.00 95 1011.5
20260905064059 58 0 0.0 1.0 0.00 0.01 0.00 95 1011.5
20260905063558 58 0 0.0 0.0 0.00 0.01 0.00 95 1011.6
20260905063117 58 0 0.0 1.0 0.00 0.01 0.00 95 1011.7
20260905062559 58 0 0.0 1.0 0.00 0.01 0.00 95 1011.6
20260905062059 59 0 0.0 0.0 0.00 0.01 0.00 95 1011.6
20260905061619 59 0 0.0 1.0 0.00 0.01 0.00 95 1011.6
20260905061059 59 0 0.0 1.0 0.00 0.01 0.00 95 1011.7
20260905060559 59 245 0.0 1.0 0.00 0.01 0.00 95 1011.7
20260905060107 59 0 0.0 1.0 0.00 0.01 0.00 95 1011.7
20260905055603 59 0 0.0 1.0 0.00 0.01 0.00 95 1011.8